FW9390 Weather Reports


time (UTC)temp
C
wind
direction
speed
KPH
gust
KPH
rain 1hr
cm
rain 24hr
cm
rain mn
cm
humidity
%
barometer
mb
20260507200056 11 103 0.0 3.2 0.00 0.00 0.00 83 1014.3
20260507194542 10 0 0.0 3.2 0.00 0.00 0.00 83 1014.2
20260507193103 10 103 1.6 6.4 0.00 0.00 0.00 83 1014.1
20260507191542 11 103 1.6 4.8 0.00 0.00 0.00 82 1014.0
20260507190040 11 103 1.6 4.8 0.00 0.00 0.00 81 1014.1
20260507184544 11 103 0.0 3.2 0.00 0.00 0.00 80 1014.1
20260507183049 11 103 1.6 4.8 0.00 0.00 0.00 78 1014.2
20260507181543 12 126 0.0 1.6 0.00 0.00 0.00 79 1014.2
20260507180040 11 126 1.6 11.3 0.00 0.00 0.00 79 1014.3
20260507174546 11 120 8.0 14.5 0.00 0.00 0.00 78 1014.2
20260507173101 12 160 8.0 12.9 0.00 0.00 0.00 77 1014.2
20260507171546 12 128 6.4 14.5 0.00 0.00 0.00 79 1014.3
20260507170048 12 141 9.7 24.1 0.00 0.00 0.00 79 1014.3
20260507164548 12 157 12.9 20.9 0.00 0.00 0.00 78 1014.2
20260507163040 12 154 8.0 16.1 0.00 0.00 0.00 81 1014.3
20260507161553 12 145 9.7 14.5 0.00 0.00 0.00 79 1014.2
20260507160057 12 150 12.9 24.1 0.00 0.00 0.00 81 1014.3
20260507154546 13 143 9.7 16.1 0.00 0.00 0.00 75 1014.3
20260507153044 12 179 12.9 20.9 0.00 0.00 0.00 79 1014.4
20260507151540 12 157 11.3 17.7 0.00 0.00 0.00 78 1014.4
20260507150038 13 155 8.0 14.5 0.00 0.00 0.00 78 1014.3
20260507144548 12 186 4.8 9.7 0.00 0.00 0.00 78 1014.3
20260507143045 12 139 4.8 11.3 0.00 0.00 0.00 79 1014.4
20260507141549 12 191 4.8 9.7 0.00 0.00 0.00 78 1014.5
20260507140043 12 186 4.8 9.7 0.00 0.00 0.00 78 1014.8
20260507134544 12 161 4.8 9.7 0.00 0.00 0.00 80 1014.8
20260507133045 12 162 4.8 9.7 0.00 0.00 0.00 79 1014.8
20260507131545 12 140 4.8 9.7 0.00 0.00 0.00 79 1014.9
20260507130044 13 159 6.4 14.5 0.00 0.00 0.00 77 1015.0
20260507124543 13 187 8.0 12.9 0.00 0.00 0.00 78 1014.9
20260507123045 13 159 6.4 14.5 0.00 0.00 0.00 79 1014.9
20260507121541 13 137 6.4 14.5 0.00 0.00 0.00 76 1015.0
20260507120038 13 161 9.7 17.7 0.00 0.00 0.00 78 1014.9
20260507114543 13 194 8.0 16.1 0.00 0.00 0.00 79 1014.9
20260507113044 13 175 11.3 17.7 0.00 0.00 0.00 78 1014.9
20260507111545 13 168 11.3 20.9 0.00 0.00 0.00 79 1014.9
20260507110043 12 152 12.9 19.3 0.00 0.00 0.00 79 1014.9
20260507104541 12 144 12.9 22.5 0.00 0.00 0.00 81 1015.0
20260507103038 11 148 12.9 22.5 0.00 0.00 0.00 82 1015.0
20260507101538 12 159 12.9 24.1 0.00 0.00 0.00 83 1014.9
20260507100044 12 132 12.9 25.7 0.00 0.00 0.00 81 1015.0
20260507094544 12 134 14.5 29.0 0.00 0.00 0.00 82 1014.8
20260507093045 11 126 17.7 29.0 0.00 0.00 0.00 83 1014.7
20260507091540 11 142 19.3 27.4 0.00 0.00 0.00 83 1014.7
20260507090039 11 123 24.1 30.6 0.00 0.00 0.00 84 1014.7
20260507084541 11 142 16.1 30.6 0.00 0.00 0.00 84 1014.6
20260507083040 11 138 25.7 33.8 0.00 0.00 0.00 85 1014.5
20260507081543 11 144 16.1 27.4 0.00 0.00 0.00 84 1014.5
20260507080042 11 138 12.9 27.4 0.00 0.00 0.00 85 1014.5
20260507074542 10 117 12.9 32.2 0.00 0.00 0.00 86 1014.4
20260507073040 10 116 14.5 30.6 0.00 0.00 0.00 87 1014.4
20260507071537 9 146 12.9 25.7 0.00 0.00 0.00 87 1014.3
20260507070042 9 118 14.5 29.0 0.00 0.00 0.00 87 1014.1
20260507064545 9 110 8.0 25.7 0.00 0.00 0.00 86 1014.1
20260507063050 9 121 11.3 29.0 0.00 0.00 0.00 86 1014.1
20260507061543 9 92 12.9 30.6 0.00 0.00 0.00 86 1014.0
20260507060044 8 97 11.3 20.9 0.00 0.00 0.00 86 1014.0
20260507054542 8 105 8.0 24.1 0.00 0.00 0.00 85 1014.0
20260507053040 8 115 11.3 24.1 0.00 0.00 0.00 85 1014.1
20260507051539 8 56 6.4 17.7 0.00 0.00 0.00 85 1014.1
20260507050041 8 116 9.7 22.5 0.00 0.00 0.00 85 1014.0
20260507044544 8 101 9.7 22.5 0.00 0.00 0.00 84 1013.9
20260507043039 9 102 9.7 20.9 0.00 0.00 0.00 84 1013.9
20260507041550 9 136 11.3 24.1 0.00 0.00 0.00 83 1013.8
20260507040053 9 115 11.3 20.9 0.00 0.00 0.00 83 1013.8
20260507034545 9 105 8.0 22.5 0.00 0.00 0.00 83 1013.8
20260507033046 9 119 11.3 20.9 0.00 0.00 0.00 82 1013.8
20260507031541 9 86 8.0 17.7 0.00 0.00 0.00 81 1013.7
20260507030038 9 129 11.3 20.9 0.00 0.00 0.00 81 1013.9
20260507024537 9 113 6.4 14.5 0.00 0.00 0.00 81 1013.9
20260507023037 10 101 4.8 12.9 0.00 0.00 0.00 80 1014.0
20260507021550 10 115 6.4 14.5 0.00 0.00 0.00 80 1013.9
20260507020040 10 105 8.0 16.1 0.00 0.00 0.00 80 1014.0
20260507014551 10 115 8.0 19.3 0.00 0.00 0.00 81 1014.0
20260507013103 10 0 1.6 6.4 0.00 0.00 0.00 89 1014.0
20260507011545 10 91 0.0 3.2 0.00 0.00 0.00 88 1013.9
20260507010044 10 91 0.0 3.2 0.00 0.00 0.00 88 1014.0
20260507004541 10 91 0.0 4.8 0.00 0.00 0.00 86 1014.0
20260507003039 10 91 1.6 4.8 0.00 0.00 0.00 86 1014.1
20260507001549 10 0 0.0 4.8 0.00 0.00 0.00 85 1014.2
20260507000044 10 91 0.0 6.4 0.00 0.00 0.00 84 1014.2
20260506234544 10 91 1.6 6.4 0.00 0.00 0.00 84 1014.1
20260506233047 10 94 1.6 9.7 0.00 0.00 0.00 82 1014.1
20260506231547 10 93 3.2 11.3 0.00 0.00 0.00 83 1014.1
20260506230038 9 11 1.6 4.8 0.00 0.00 0.00 86 1014.1
20260506224539 9 0 0.0 4.8 0.00 0.00 0.00 86 1014.1
20260506223101 9 11 0.0 3.2 0.00 0.00 0.00 85 1014.1
20260506221543 9 11 1.6 4.8 0.00 0.00 0.00 86 1014.1
20260506220043 9 11 3.2 4.8 0.00 0.00 0.00 84 1014.0
20260506214543 9 11 3.2 6.4 0.00 0.00 0.00 84 1014.0
20260506213040 9 5 6.4 9.7 0.00 0.00 0.00 84 1014.0
20260506211540 9 5 8.0 12.9 0.00 0.00 0.00 84 1014.0
20260506210040 9 5 8.0 12.9 0.00 0.00 0.00 83 1013.9
20260506204545 10 355 8.0 12.9 0.00 0.00 0.00 83 1014.0
20260506203046 10 9 8.0 12.9 0.00 0.00 0.00 82 1013.9
20260506201543 10 22 8.0 14.5 0.00 0.00 0.00 81 1013.8